Tracking 28766 objects as of 13-Apr-2024
HD Live streaming from Space Station
objects crossing your sky now

ONEWEB-0211

Track ONEWEB-0211 now!
10-day predictions
ONEWEB-0211 is classified as:


NORAD ID: 48767
Int'l Code: 2021-045A
Perigee: 1,207.4 km
Apogee: 1,210.4 km
Inclination: 87.9 °
Period: 109.5 minutes
Semi major axis: 7579 km
RCS: Unknown
Launch date: May 28, 2021
Source: United Kingdom (UK)
Launch site: VOSTOCHNY COSMODROME (VOSTO)
Your satellite tracking list
Your tracking list is empty




NASA's NSSDC Master Catalog

Two Line Element Set (TLE):
1 48767U 21045A   24103.91565730  .00000080  00000-0  17856-3 0  9998
2 48767  87.9015  57.4343 0001923  83.4886 276.6463 13.15549932139854
Source of the keplerian elements: AFSPC